Normandy Park, Washington, United States
Lat: 47.44N, Lon: 122.34W
Wx Zone: WAZ508
Local Info
Past Weather Observations for Today

NOTE: This archive is for the closest National Weather Service station to Normandy Park. Information may differ from the station used for current weather conditions.

Click here for Long-term Archive

Time Weather Temperature Dewpoint Humidity Pressure Winds Precip Visibility
20:53
Partly Cloudy
54°F / 12°C 43°F / 6°C 67% 30.21 in
(1023 mb)
N 4.6 mph
(N 7 kph)
- 10SM
19:53
Partly Cloudy
54°F / 12°C 43°F / 6°C 67% 30.18 in
(1022 mb)
Calm - 10SM
18:53
Partly Cloudy
57°F / 14°C 43°F / 6°C 59% 30.18 in
(1022 mb)
Calm - 10SM
17:53
Partly Cloudy
59°F / 15°C 43°F / 6°C 55% 30.18 in
(1022 mb)
WNW 6.9 mph
(WNW 11 kph)
- 10SM
16:53
Partly Cloudy
59°F / 15°C 43°F / 6°C 55% 30.15 in
(1021 mb)
Calm - 10SM
15:53
Partly Cloudy
57°F / 14°C 43°F / 6°C 59% 30.15 in
(1021 mb)
Calm - 10SM
15:21
Mostly Cloudy
57°F / 14°C 45°F / 7°C 63% 30.15 in
(1021 mb)
SE 5.8 mph
(SE 9 kph)
- 10SM
14:53
Mostly Cloudy
57°F / 14°C 43°F / 6°C 59% 30.15 in
(1021 mb)
Calm - 10SM
14:15
Mostly Cloudy
55°F / 13°C 45°F / 7°C 67% 30.15 in
(1021 mb)
Calm - 10SM
13:53
Mostly Cloudy
55°F / 13°C 45°F / 7°C 67% 30.15 in
(1021 mb)
SE 4.6 mph
(SE 7 kph)
0.00 in
(0.00 mm)
10SM
13:01
Mostly Cloudy
Light Rain
55°F / 13°C 45°F / 7°C 67% 30.15 in
(1021 mb)
Calm 0.00 in
(0.00 mm)
10SM
12:53
Mostly Cloudy
Light Rain
54°F / 12°C 46°F / 8°C 77% 30.15 in
(1021 mb)
WNW 3.5 mph
(WNW 6 kph)
0.00 in
(0.00 mm)
10SM
11:53
Mostly Cloudy
55°F / 13°C 43°F / 6°C 63% 30.15 in
(1021 mb)
Variable 4.6 mph
(Variable 7 kph)
- 10SM
11:04
Mostly Cloudy
54°F / 12°C 46°F / 8°C 77% 30.15 in
(1021 mb)
NE 8.1 mph
(NE 13 kph)
- 10SM
10:53
Mostly Cloudy
54°F / 12°C 46°F / 8°C 77% 30.15 in
(1021 mb)
E 6.9 mph
(E 11 kph)
- 10SM
10:21
Mostly Cloudy
52°F / 11°C 46°F / 8°C 82% 30.15 in
(1021 mb)
E 9.2 mph
(E 15 kph)
- 10SM
09:53
Overcast
50°F / 10°C 46°F / 8°C 88% 30.15 in
(1021 mb)
NE 8.1 mph
(NE 13 kph)
0.00 in
(0.00 mm)
10SM
08:53
Overcast
Light Rain
48°F / 9°C 45°F / 7°C 87% 30.12 in
(1020 mb)
Calm 0.01 in
(0.25 mm)
8SM
07:53
Overcast
Light Rain
48°F / 9°C 45°F / 7°C 87% 30.12 in
(1020 mb)
S 4.6 mph
(S 7 kph)
0.00 in
(0.00 mm)
10SM
06:53
Overcast
48°F / 9°C 43°F / 6°C 82% 30.09 in
(1019 mb)
S 3.5 mph
(S 6 kph)
- 10SM
05:53
Overcast
48°F / 9°C 43°F / 6°C 82% 30.09 in
(1019 mb)
S 5.8 mph
(S 9 kph)
- 10SM
04:53
Overcast
48°F / 9°C 41°F / 5°C 76% 30.09 in
(1019 mb)
S 4.6 mph
(S 7 kph)
- 10SM
03:53
Overcast
50°F / 10°C 43°F / 6°C 76% 30.09 in
(1019 mb)
S 8.1 mph
(S 13 kph)
- 10SM
02:53
Overcast
50°F / 10°C 43°F / 6°C 76% 30.09 in
(1019 mb)
SW 6.9 mph
(SW 11 kph)
- 10SM
02:10
Overcast
50°F / 10°C 43°F / 6°C 76% 30.09 in
(1019 mb)
SW 5.8 mph
(SW 9 kph)
- 10SM
01:53
Mostly Cloudy
50°F / 10°C 43°F / 6°C 76% 30.09 in
(1019 mb)
SW 5.8 mph
(SW 9 kph)
- 10SM
00:53
Mostly Cloudy
52°F / 11°C 43°F / 6°C 72% 30.09 in
(1019 mb)
SSE 8.1 mph
(SSE 13 kph)
- 10SM
Time Weather Temperature Dewpoint Humidity Pressure Winds Precip Visibility


Weather for websites

WeatherForYou.com, LLC is not responsible for any damages or problems caused by this service. Current weather conditions are obtained from the closest station including government and personal stations which may have varying degrees of accuracy. Weather forecasts are derived from the NOAA NDFD. Like all things, this site belongs to Jesus Christ... He just trusts us to maintain it. If you have any questions or comments email webmaster@weatherforyou.com

Copyright © 2016, WeatherForYou.com LLC. All rights reserved.